Hourly Weather Roundup
Issued by NWS Central Illinois

Home | Current Version | Previous Version | Text Only | Print | Product List | Glossary On
Versions: 1 2 3 4 5 6 7 8 9 10 11 12 13 14 15 16 17 18 19 20 21 22 23 24 25 26 27 28 29 30 31 32 33 34 35 36 37 38 39 40 41 42 43 44 45 46 47 48 49 50
000
NZUS43 KILX 180210
HWRILX

Area Weather Roundup
National Weather Service Lincoln IL
900 PM CDT THU AUG 17 2017

NOTE:  "FAIR" indicates few or no clouds below 12,000 feet, with
       no sigificant weather and/or obstructions to visibility.


CITY           SKY/WX    TMP DP  RH WIND       PRES   REMARKS
Bloomington    MOCLDY    75  67  76 W16       29.86R
Champaign      CLEAR     68  65  90 SW6       29.86R
Danville       CLOUDY    72  68  87 SW5       29.82S
Decatur        CLEAR     75  66  73 SW8       29.86R
Effingham      MOCLDY    75  69  80 SW3       29.89R
Flora          CLOUDY    79  73  80 W6        29.87R HX  82
Galesburg      CLEAR     69  63  79 W3        29.86R
Jacksonville   CLEAR     71  65  83 SW6       29.86R
Lacon          CLEAR     74  63  70 W5        29.83R
Lawrenceville  PTCLDY    77  70  79 W5        29.86R
Litchfield     CLEAR     68  67  94 SW3       29.89R
$$


CITY           SKY/WX    TMP DP  RH WIND       PRES   REMARKS
Lincoln        PTCLDY    76  67  73 SW3       29.85R
Macomb         PTCLDY    70  65  83 NW3       29.88R
Mattoon        CLOUDY    75  68  78 VRB5      29.86R
Mt Carmel AP   PTCLDY    76  71  83 SW3       29.86R
Olney-Noble AP MOCLDY    74  72  93 CALM      29.87S
Paris AP       MOCLDY    73  68  83 W7        29.86R
Peoria         PTCLDY    75  62  64 NW6       29.85R
Pontiac        MOCLDY    73  67  80 W9        29.84R
Rantoul        CLEAR     74  69  82 SW6       29.85R
Robinson       CLEAR     70  69  95 CALM      29.86S
Springfield    PTCLDY    75  67  76 SW5       29.86R
Taylorville    CLEAR     71  67  89 SW5       29.87R
$$

...REGIONAL REPORTS...


CITY           SKY/WX    TMP DP  RH WIND       PRES   REMARKS
Chicago O`Hare MOCLDY    77  63  61 W16G29    29.76R
Kankakee       MOCLDY    75  68  78 W8        29.82R
Moline         CLOUDY    76  64  66 W10       29.82R
Mount Sterling MOCLDY    70  63  79 CALM      29.86R
Mount Vernon   PTCLDY    77  73  87 SW7       29.88R
Pittsfield     PTCLDY    74  63  69 SW6       29.88R
Quincy         CLEAR     73  60  63 W7        29.87R
Rockford       CLOUDY    73  63  70 W9        29.80R
$$


CITY           SKY/WX    TMP DP  RH WIND       PRES   REMARKS
Burlington     CLEAR     73  63  70 NW3       29.85R
Cedar Rapids   CLOUDY    70  64  81 W9        29.83S
Des Moines     CLEAR     74  59  59 W8        29.87R
Kirksville     CLEAR     72  61  68 W6        29.91R
Ottumwa        CLEAR     70  62  76 NW6       29.86R
St Louis       PTCLDY    78  65  63 W6        29.90R HX  80
$$


CITY           SKY/WX    TMP DP  RH WIND       PRES   REMARKS
Terre Haute    PTCLDY    77  70  79 SW6       29.85R
Evansville     CLEAR     80  71  74 SW8       29.88R HX  84
Indianapolis   PTCLDY    77  68  73 SW9       29.84S
Lafayette      PTCLDY    72  69  90 W5        29.82R
Madison        CLOUDY    68  62  81 W7        29.74R
Milwaukee      MOCLDY    73  65  75 W14G28    29.70R
$$






USA.gov is the U.S. government's official web portal to all federal, state and local government web resources and services.